Tracking 27428 objects as of 31-May-2023
HD Live streaming from Space Station
objects crossing your sky now

TISAT 1

Track TISAT 1 now!
10-day predictions
TISAT 1 is classified as:


NORAD ID: 36799
Int'l Code: 2010-035E
Perigee: 577.8 km
Apogee: 594.2 km
Inclination: 98.1 °
Period: 96.2 minutes
Semi major axis: 6956 km
RCS: 0.056 m2 (small)
Launch date: July 12, 2010
Source: (SWTZ)
Launch site: SRIHARIKOTA (SRI)

Uplink (MHz): 145.980
Downlink (MHz): 437.305
Beacon (MHz): 145.980
Mode: FM AFSK PSK CW
Call sign: HB9DE
Status: Inactive

Your satellite tracking list
Your tracking list is empty




NASA's NSSDC Master Catalog

Two Line Element Set (TLE):
1 36799U 10035E   23151.15936256  .00004089  00000-0  36841-3 0  9998
2 36799  98.1391  20.1271 0011837  36.4866 323.7158 14.96135936699889
Source of the keplerian elements: Caltech